Showing default

CORVUS BC1, 42847

Orbit data source: Space-Track

CORVUS BC1, 42847 is a payload satellite owned by Astro Digital (US) in SSO that was launched on Fri, 14 Jul 2017 UTC via a SOYUZ-2-1A launch vehicle from the Tyuratam Missile And Space Complex (TTMTR). Payload-class satellites include a variety of spacecraft equipped with specific instruments for various scientific and technological missions. These include communications satellites like Starlink; space stations such as the ISS; scientific satellites like the Hubble; Earth observation satellites from companies like Planet Labs, Umbra, and HawkEye 360; GPS; miniature CubeSats for education and research; and military/defense satellites.

Loading next visibility...
Identifier
42847, 2017-042Y
Orbit
SSO
Country
Flag of USUS
Related business
Manufacturer
Astro Digital
Mission
Operational Commercial Imaging
Bus & Motor
CUBESAT 6U, Unknown motor
Mass
10 kg wet, 10 kg dry
Launch date (UTC)
2017-07-14 (9 years ago)
Launch vehicle
SOYUZ-2-1A
Launch site
Tyuratam Missile And Space Complex (TTMTR)
Object type
Payload
Rocket body
Debris
Shape & HBR
Box + 2 Pan, 0.2 m
Radar Cross Section
0.092 m², Medium (>0.1 m² and < 1m²)

Expand to show TLE details & history
Last TLE update: 10 hours ago

TLE from 10 hours ago
0 CORVUS BC1
1 42847U 17042Y   26034.44172691  .00003850  00000-0  27131-3 0  9991
2 42847  97.3922 201.9168 0012069 178.6476 181.4786 15.05517507466965
Epoch: 2026-02-03T10:36Z
TLE epoch observation values (Epoch: 2026-02-03T10:36:05.205Z)
Latitude
-0°
Longitude
-90.7275°
Altitude
561.349 km
Speed
7.576 km/s
True Right ascension
13h 27m 40s
True Declination
0° 00' 00"
Sunlit
Object was in full shadow at epoch
Visualization orbit readout
Latitude
Unknown
Longitude
Unknown
Altitude
Unknown
Speed
Unknown
Apparent Right ascension
Unknown
Apparent Declination
Unknown
Sunlit
N/A
Visualization observer readout
Local Sidereal Time
22:51:15
Azimuth
Unknown
Elevation
Unknown
Doppler factor
Unknown
Orbital elements
Apogee altitude
555.26 km
Perigee altitude
538.544 km
Semi-major axis
6,925.039 km
Eccentricity
0.00121
Inclination
97.3922°
RAAN
201.9168°
Arg. of periapsis
178.6476°
True anomaly
181.47504°
Mean anomaly
181.4786°
Eccentric anomaly
181.47682°
Mean motion
3.76626 °/min
Orbital period
95.59 mins
BSTAR
0.00027131
Loading maneuver chart data...
Computing Atmospheric mass density...
Loading historical data...
Loading historical data...
Loading historical data...
Loading historical data...
Loading historical data...
Loading historical data...
Loading historical data...

Documentation

Showing up to 5 results
|